Terminal Aerodrome Forecast
Issued by NWS Wakefield, VA

Home | Current Version | Previous Version | Text Only | Print | Product List | Glossary On
Versions: 1 2 3 4 5 6 7 8 9 10 11 12 13 14 15 16 17
000
FTUS41 KAKQ 261740
TAFECG
TAF
KECG 261740Z 2618/2718 01013KT P6SM OVC015
      TEMPO 2618/2620 BKN009
     FM262100 01010KT P6SM BKN025 OVC060
     FM262300 35003KT P6SM SCT250
     FM271400 29008KT P6SM SCT250=

USA.gov is the U.S. government's official web portal to all federal, state and local government web resources and services.